Location: Edmonton
(53.5500°N, 113.5000°W)
Time: 11:33:31
(UTC-06:00)

Daily predictions for brighter satellites

Satellite Brightness Start Highest point End
(mag) Time Altitude Azimuth Time Altitude Azimuth Time Altitude Azimuth
Meteor 1-15 Rocket 4.3 22:22:20 10° NNW 22:28:08 79° ENE 22:33:47 10° SSE
Cosmos 841 Rocket 3.6 22:23:57 10° S 22:29:08 62° ESE 22:34:21 10° NNE
ISS -3.7 22:27:20 10° WSW 22:30:32 52° SSE 22:33:45 10° E
USA 32 4.4 22:26:49 10° N 22:32:03 71° W 22:37:15 10° S
Cosmos 1975 Rocket 3.8 22:28:17 10° SSW 22:32:32 56° WNW 22:36:49 10° N
Cosmos 372 Rocket 4.0 22:27:27 10° NNW 22:32:39 89° WSW 22:37:45 10° SSE
Helios 1A 3.1 22:28:58 10° SSE 22:33:06 69° ENE 22:37:17 10° N
Okean 2 4.3 22:29:25 10° SSE 22:33:08 32° E 22:36:53 10° NNE
Cosmos 2360 Rocket 2.8 22:28:27 10° NW 22:33:57 55° WSW 22:39:26 10° S
Cosmos 2084 Rocket 4.3 22:30:32 10° NW 22:34:28 42° NNE 22:38:17 10° ESE
Cosmos 2219 Rocket 2.5 22:31:50 10° NNW 22:37:25 63° NE 22:42:57 10° SE
Cosmos 2333 4.3 22:33:23 10° NNW 22:39:04 87° NE 22:44:47 10° SSE
Cosmos 2084 3.3 22:37:06 10° SW 22:41:18 80° SE 22:45:19 10° NE
USA 234 3.5 22:37:29 10° ENE 22:43:50 50° SE 22:50:10 10° SW
BREEZE-M R/B 2.8 22:42:35 10° WSW 22:45:37 32° S 22:47:53 10° ESE
Cosmos 1356 Rocket 4.3 22:42:10 10° SSE 22:46:02 35° E 22:49:59 10° NNE
Cosmos 292 Rocket 3.7 22:45:32 10° SSW 22:50:18 83° ESE 22:55:05 10° NNE
Helios 1B rocket 3.2 22:47:36 10° NNE 22:51:27 36° E 22:55:15 10° SSE
SJ 16-02 1.9 22:48:09 10° NNW 22:52:30 54° WSW 22:56:49 10° S
ERS-1 Rocket 3.5 22:49:09 10° S 22:54:06 58° WSW 22:59:05 10° NNW
NOSS 3-2 (A) 4.1 22:48:35 10° WSW 22:54:45 68° NW 23:01:45 10° NE
Iridium 90 3.1 22:53:00 10° S 22:55:10 74° E 22:57:20 10° N
Cosmos 1356 3.6 22:51:59 10° SSW 22:55:27 76° WNW 22:58:57 10° N
Cosmos 2228 4.2 22:55:01 10° N 22:58:51 30° ENE 23:02:35 10° SE
NOSS 3-2 (C) 3.9 22:55:19 10° SW 23:01:29 76° NW 23:08:30 10° NE
Meteor 1-29 3.9 22:58:56 10° NNE 23:02:06 32° E 23:05:00 12° SSE
CZ-2C R/B 3.6 22:57:12 10° SE 23:02:32 56° ENE 23:08:08 10° N
Cosmos 2333 Rocket 2.3 22:58:30 10° NNW 23:04:15 83° ENE 23:09:41 12° SE
Cosmos 1536 Rocket 3.8 23:01:28 10° SSW 23:05:54 77° W 23:10:25 10° N
SL-16 R/B 3.6 23:01:12 10° NNW 23:06:18 32° NE 23:11:22 10° ESE
Cosmos 1726 Rocket 4.2 23:02:55 10° N 23:07:10 44° ENE 23:11:00 12° SE
COSMOS 2428 2.9 23:01:32 10° NW 23:07:12 68° WSW 23:12:38 11° SSE
Okean 1-7 Rocket 4.4 23:04:33 11° SSE 23:08:34 37° E 23:12:45 10° NNE
IGS 5A 3.5 23:05:01 11° SSE 23:09:02 82° ENE 23:13:14 10° NNW
Lacrosse 5 rocket 3.3 23:07:22 10° W 23:10:21 18° SW 23:13:15 10° S
SPOT 1/Viking Rocket 3.9 23:07:28 10° S 23:12:36 64° WSW 23:17:44 10° NNW
Meteor 1-23 Rocket 4.4 23:07:29 10° SSW 23:13:03 79° WNW 23:18:40 10° NNE
Cosmos 1125 Rocket 4.2 23:07:59 10° NW 23:13:04 50° WSW 23:18:06 10° S
ERBS 2.4 23:10:18 10° WNW 23:13:41 76° NNE 23:17:04 10° ESE
CZ-4C R/B 3.1 23:06:52 10° NW 23:13:42 62° SW 23:20:58 12° SSE
Cosmos 1980 3.9 23:10:10 10° NNW 23:15:50 67° NE 23:21:02 12° SE
H-2A R/B 3.4 23:11:49 10° SSW 23:16:19 33° W 23:20:56 10° NNW
CENTAUR R/B 2.6 23:10:49 10° SW 23:17:05 81° SE 23:24:23 10° NE
Cosmos 1953 4.2 23:17:20 10° NNE 23:20:20 20° ENE 23:23:18 10° ESE
Cosmos 1833 4.3 23:14:40 10° SW 23:20:24 83° WNW 23:26:07 10° NNE
Cosmos 1092 Rocket 4.1 23:17:58 10° NNW 23:24:21 84° W 23:30:34 11° S
Cosmos 2058 Rocket 3.7 23:20:04 10° N 23:24:28 47° ENE 23:28:04 15° SE
Nadezhda 4 Rocket 4.5 23:19:34 10° NNW 23:25:46 61° W 23:31:58 10° S
Cosmos 2297 Rocket 3.7 23:26:10 13° SE 23:29:14 19° E 23:33:09 10° ENE
DMSP B5D2-2 4.3 23:25:21 10° NNE 23:30:40 76° WNW 23:35:56 10° SSW
Cosmos 1174 3.0 23:29:34 10° NW 23:32:35 83° SW 23:34:48 18° SE
Cosmos 2227 Rocket 3.5 23:29:29 14° SE 23:32:48 23° ESE 23:37:05 10° NE
ATLAS 3B R/B 3.9 23:26:29 10° W 23:33:12 46° NNW 23:39:40 10° NE
Cosmos 2237 Rocket 2.3 23:27:40 10° NNW 23:33:24 80° ENE 23:38:17 15° SE
CARTOSAT-1 4.0 23:33:20 12° S 23:37:16 56° W 23:41:33 10° NNW
NOSS 0 Rocket 4.1 23:35:18 10° NW 23:41:33 72° WSW 23:46:42 16° SSE
Cosmos 1025 Rocket 3.4 23:41:52 10° SSW 23:46:12 64° WNW 23:50:35 10° N
Cosmos 1066 Rocket 4.2 23:40:59 10° SSW 23:46:23 87° WNW 23:51:56 10° NNE
SAR-Lupe-4 3.7 23:43:56 19° SSE 23:46:24 65° ENE 23:49:58 10° N
Cosmos 1544 3.9 23:43:20 10° NNW 23:46:56 47° W 23:49:59 13° SSW
ALOS 2 4.1 23:44:31 11° ESE 23:48:04 28° ENE 23:51:48 10° N
Cosmos 1606 Rocket 3.8 23:45:23 10° NNW 23:49:49 66° W 23:53:25 15° S
Cosmos 2026 Rocket 4.0 23:46:25 10° NNW 23:52:38 80° W 23:57:49 15° S
Cosmos 540 Rocket 4.3 23:47:50 10° SW 23:52:54 54° WNW 23:58:00 10° NNE
Cosmos 1766 3.5 23:50:20 10° NNW 23:54:19 69° W 23:57:15 17° S
